TimeCST,TemperatureF,Dew PointF,Humidity,Sea Level PressureIn,VisibilityMPH,Wind Direction,Wind SpeedMPH,Gust SpeedMPH,PrecipitationIn,Events,Conditions,WindDirDegrees,DateUTC
6:00 AM,78,74,86,30.01,6,NW,4.6,,,,Haze,310,2012-10-04 12:00:00
6:00 AM,78.8,75.2,89,30.01,6.2,NW,4.6,-,N/A,,Mostly Cloudy,310,2012-10-04 12:00:00
7:00 AM,78.8,75.2,89,30.01,6.2,North,4.6,-,N/A,Thunderstorm,Thunderstorm,350,2012-10-04 13:00:00
8:00 AM,82.4,77.0,84,30.01,6.2,Calm,Calm,-,N/A,Thunderstorm,Thunderstorm,0,2012-10-04 14:00:00
9:00 AM,79,74,82,30.03,3,NW,3.5,,,Rain,Light Drizzle,310,2012-10-04 15:00:00
9:00 AM,78.8,75.2,89,30.01,3.1,NW,3.5,-,N/A,,Light Drizzle,310,2012-10-04 15:00:00
10:00 AM,80.6,75.2,84,30.04,4.3,NNW,2.3,-,N/A,Thunderstorm,Unknown,340,2012-10-04 16:00:00
11:00 AM,80.6,75.2,84,30.01,3.1,WSW,5.8,-,N/A,,Scattered Clouds,250,2012-10-04 17:00:00
12:00 PM,83,75,71,30.00,6,SW,3.5,,,,Mostly Cloudy,230,2012-10-04 18:00:00
12:00 PM,84.2,75.2,74,30.01,6.2,SW,3.5,-,N/A,,Mostly Cloudy,230,2012-10-04 18:00:00
1:00 PM,84.2,77.0,79,29.98,6.2,WSW,5.8,-,N/A,,Scattered Clouds,250,2012-10-04 19:00:00
2:00 PM,82.4,75.2,79,29.95,6.2,NNW,4.6,-,N/A,,Scattered Clouds,340,2012-10-04 20:00:00
3:00 PM,84,76,70,29.94,6,East,6.9,,,Rain,Light Drizzle,90,2012-10-04 21:00:00
3:00 PM,84.2,75.2,74,29.92,6.2,East,6.9,-,N/A,,Scattered Clouds,90,2012-10-04 21:00:00
4:00 PM,84.2,75.2,74,29.92,6.2,NNE,9.2,-,N/A,,Scattered Clouds,20,2012-10-04 22:00:00
5:00 PM,82.4,73.4,74,29.95,6.2,East,13.8,-,N/A,,Scattered Clouds,100,2012-10-04 23:00:00
6:00 PM,81,73,72,29.96,11,ESE,11.5,,,,Haze,110,2012-10-05 00:00:00
6:00 PM,80.6,73.4,79,29.95,6.2,ESE,11.5,-,N/A,,Scattered Clouds,110,2012-10-05 00:00:00
7:00 PM,80.6,73.4,79,29.95,6.2,East,8.1,-,N/A,,Scattered Clouds,100,2012-10-05 01:00:00
8:00 PM,80.6,71.6,74,29.98,6.2,East,6.9,-,N/A,,Partly Cloudy,100,2012-10-05 02:00:00